星链-35860(STARLINK-35860)

导读 | 豆包AI

STARLINK-35860是美国SpaceX星链星座的成员卫星,于2025年12月4日发射入轨。星链项目旨在构建全球卫星互联网通信系统,为全球偏远地区、海洋上空等传统网络覆盖盲区提供低成本、低延迟的宽带互联网服务,这颗卫星进一步扩充了星链低轨星座的规模,助力提升星座全球覆盖密度与服务容量,推动SpaceX全球互联目标落地。

基本信息
目录编号:
66881
目录名称:
STARLINK-35860
国际标识:
2025-283D
轨道中心:
EARTH
卫星名称:
星链-35860
卫星全名:
星链-35860(STARLINK-35860)
卫星状态:
在轨 (已飞行100 天)
发射日期:
2025-12-04 UTC
国别 :
美国 (US)
星等 :
--
轨道信息
数据来源 国际轨道数据
星历时间: 2026-03-14T07:16:21+0800
8小时前
查看轨道信息
半长轴: 6853.302km
偏心率: 0.000103
轨道倾角: 53.160°
近地点辐角 101.088°
升交点赤经 3.989°
平近点角 259.024°
近地点: 474.459km
远地点: 475.871km
周期: 94.104分钟
每日圈数: 15.302171
详细信息
固有亮度:
5
最大亮度:
2.5
卫星平台:
Starlink V1.0
覆盖范围:
全球
运营商:
太空探索技术公司
运营商所在国:
美国
制造商(研发单位):
太空探索技术公司
制造商所在国:
美国
使用方式:
暂无
卫星简介
Starlink 计划是 SpaceX 推出的全球卫星互联网项目,通过发射低轨道卫星,为全球尤其是偏远地区提供高速、低延迟的互联网服务。自 2019 年起,Starlink 已部署数千颗卫星,旨在缩小全球数字鸿沟,推动互联网普及。该项目还为军事、航空等行业提供通信支持,带来广泛经济效益。
2D轨道图
3D轨道图
轨道高度分析图
轨道倾角分析图
轨道综合分析图
查看轨道综合分析图